Location: Arroyo de Valdeoliva
(40.1604°N, 4.9878°W)
Time: 04:41:10
(UTC+00:00)

Cosmos 1076 Rocket - Pass Details

Date: 11 December 2025
Orbit: 582 x 603 km, 82.5° (Epoch: 13 January)

Event Time Altitude Azimuth Distance (km) Brightness Sun altitude
Rises 17:40:26 0° 4° (N) 2,853 6.7 -8.7°
Reaches altitude 10° 17:42:55 10° 16° (NNE) 1,948 5.8 -9.2°
Maximum altitude 17:46:38 28° 76° (ENE) 1,153 4.4 -9.8°
Drops below altitude 10° 17:50:19 10° 135° (SE) 1,941 5.9 -10.5°
Sets 17:52:47 0° 147° (SSE) 2,840 6.8 -10.9°
